SP1JT-10 Weather Reports


Display with metric or nautical units.
time (UTC)temp
F
wind
direction
speed
MPH
gust
MPH
rain 1hr
in
rain 24hr
in
rain mn
in
humidity
%
barometer
mb
20260507044013 41 0.0 0.0 0.00 0.00 0.00 98 1014.5
20260507043013 41 0.0 0.0 0.00 0.00 0.00 99 1014.2
20260507042014 41 0.0 0.0 0.00 0.00 0.00 98 1014.1
20260507041033 41 0.0 0.0 0.00 0.00 0.00 10 1014.0
20260507035915 41 0.0 0.0 0.00 0.00 0.00 10 1014.0
20260507034914 41 0.0 0.0 0.00 0.00 0.00 10 1013.7
20260507033913 41 0.0 0.0 0.00 0.00 0.00 10 1013.7
20260507031916 41 0.0 0.0 0.00 0.00 0.00 10 1013.4
20260507030915 40 0.0 0.0 0.00 0.00 0.00 10 1013.5
20260507025914 40 0.0 0.0 0.00 0.00 0.00 10 1013.5
20260507024913 40 0.0 0.0 0.00 0.00 0.00 10 1013.5
20260507023912 40 0.0 0.0 0.00 0.00 0.00 10 1013.5
20260507021913 40 0.0 0.0 0.00 0.00 0.00 10 1013.2
20260507020913 40 0.0 0.0 0.00 0.00 0.00 10 1013.1
20260507015912 40 0.0 0.0 0.00 0.00 0.00 10 1013.1
20260507013914 40 0.0 0.0 0.00 0.00 0.00 10 1012.9
20260507011915 41 0.0 0.0 0.00 0.00 0.00 10 1013.0
20260507010913 41 0.0 0.0 0.00 0.00 0.00 10 1012.9
20260507004913 41 0.0 0.0 0.00 0.00 0.00 10 1012.8
20260507003914 41 0.0 0.0 0.00 0.00 0.00 10 1012.5
20260507002914 41 0.0 0.0 0.00 0.00 0.00 99 1012.4
20260507001913 41 0.0 0.0 0.00 0.00 0.00 10 1012.6
20260506235914 41 0.0 0.0 0.00 0.00 0.00 10 1012.8
20260506234913 41 0.0 0.0 0.00 0.00 0.00 10 1012.7
20260506233914 41 0.0 0.0 0.00 0.00 0.00 10 1012.5
20260506232914 41 0.0 0.0 0.00 0.00 0.00 99 1012.4
20260506231914 41 0.0 0.0 0.00 0.00 0.00 10 1012.4
20260506230914 41 0.0 0.0 0.00 0.00 0.00 99 1012.4
20260506225913 41 0.0 0.0 0.00 0.00 0.00 99 1012.2
20260506224913 41 0.0 0.0 0.00 0.00 0.00 98 1012.2
20260506223914 41 0.0 0.0 0.00 0.00 0.00 10 1012.3
20260506222914 41 0.0 0.0 0.00 0.00 0.00 99 1012.3
20260506221914 41 0.0 0.0 0.00 0.00 0.00 99 1012.3
20260506215914 41 0.0 0.0 0.00 0.00 0.00 10 1012.2
20260506214913 41 0.0 0.0 0.00 0.00 0.00 99 1012.2
20260506212913 41 0.0 0.0 0.00 0.00 0.00 99 1012.1
20260506211913 41 0.0 0.0 0.00 0.00 0.00 98 1012.0
20260506210914 41 0.0 0.0 0.00 0.00 0.00 99 1011.7
20260506205913 41 0.0 0.0 0.00 0.00 0.00 99 1011.7
20260506204915 41 0.0 0.0 0.00 0.00 0.00 98 1011.6
20260506203913 41 0.0 0.0 0.00 0.00 0.00 98 1011.7
20260506201912 42 0.0 0.0 0.00 0.00 0.00 98 1011.5
20260506195912 42 0.0 0.0 0.00 0.00 0.00 99 1011.3
20260506195714 42 0.0 0.0 0.00 0.00 0.00 98 1011.3
20260506195513 42 0.0 0.0 0.00 0.00 0.00 97 1011.3
20260506195412 42 0.0 0.0 0.00 0.00 0.00 99 1011.5
20260506194214 42 0.0 0.0 0.00 0.00 0.00 98 1011.4
20260506193225 42 0.0 0.0 0.00 0.00 0.00 97 1011.3
20260506192018 44 0.0 0.0 0.00 0.00 0.00 97 1010.3
20260506175914 44 0.0 0.0 0.00 0.00 0.00 97 1010.3
20260506174913 44 0.0 0.0 0.00 0.00 0.00 97 1010.4
20260506173913 45 0.0 0.0 0.00 0.00 0.00 97 1010.3
20260506172913 45 0.0 0.0 0.00 0.00 0.00 98 1010.3
20260506171913 46 0.0 0.0 0.00 0.00 0.00 98 1010.3
20260506170912 46 0.0 0.0 0.00 0.00 0.00 99 1010.0
20260506165913 46 0.0 0.0 0.00 0.00 0.00 98 1010.0
20260506164913 46 0.0 0.0 0.00 0.00 0.00 99 1010.0
20260506163913 46 0.0 0.0 0.00 0.00 0.00 98 1009.9
20260506162914 46 0.0 0.0 0.00 0.00 0.00 97 1010.0
20260506161913 46 0.0 0.0 0.00 0.00 0.00 96 1010.0
20260506160912 46 0.0 0.0 0.00 0.00 0.00 96 1009.8
20260506154913 46 0.0 0.0 0.00 0.00 0.00 96 1009.7
20260506153914 46 0.0 0.0 0.00 0.00 0.00 96 1009.7
20260506152914 46 0.0 0.0 0.00 0.00 0.00 97 1009.7
20260506151912 46 0.0 0.0 0.00 0.00 0.00 96 1009.7
20260506144913 46 0.0 0.0 0.00 0.00 0.00 97 1009.6
20260506142912 46 0.0 0.0 0.00 0.00 0.00 98 1009.4
20260506135913 46 0.0 0.0 0.00 0.00 0.00 10 1009.3
20260506134913 46 0.0 0.0 0.00 0.00 0.00 10 1009.4
20260506133914 46 0.0 0.0 0.00 0.00 0.00 10 1009.3
20260506132913 45 0.0 0.0 0.00 0.00 0.00 10 1009.3
20260506125914 45 0.0 0.0 0.00 0.00 0.00 10 1009.3
20260506124913 45 0.0 0.0 0.00 0.00 0.00 10 1009.2
20260506123913 45 0.0 0.0 0.00 0.00 0.00 10 1009.1
20260506122913 45 0.0 0.0 0.00 0.00 0.00 10 1009.1
20260506121913 46 0.0 0.0 0.00 0.00 0.00 10 1008.8
20260506120914 46 0.0 0.0 0.00 0.00 0.00 10 1008.6
20260506115914 46 0.0 0.0 0.00 0.00 0.00 10 1008.7
20260506114914 46 0.0 0.0 0.00 0.00 0.00 10 1008.5
20260506113913 46 0.0 0.0 0.00 0.00 0.00 10 1008.4
20260506112914 46 0.0 0.0 0.00 0.00 0.00 10 1008.3
20260506111914 46 0.0 0.0 0.00 0.00 0.00 10 1008.4
20260506110913 46 0.0 0.0 0.00 0.00 0.00 10 1008.3
20260506103914 46 0.0 0.0 0.00 0.00 0.00 10 1008.3
20260506102914 46 0.0 0.0 0.00 0.00 0.00 10 1008.2
20260506101913 46 0.0 0.0 0.00 0.00 0.00 10 1008.2
20260506095915 46 0.0 0.0 0.00 0.00 0.00 10 1008.2
20260506094913 45 0.0 0.0 0.00 0.00 0.00 10 1008.1
20260506092913 45 0.0 0.0 0.00 0.00 0.00 10 1008.2
20260506090914 45 0.0 0.0 0.00 0.00 0.00 10 1008.2
20260506085914 45 0.0 0.0 0.00 0.00 0.00 10 1008.1
20260506085814 45 0.0 0.0 0.00 0.00 0.00 10 1008.1
20260506084814 45 0.0 0.0 0.00 0.00 0.00 10 1008.2
20260506083814 45 0.0 0.0 0.00 0.00 0.00 10 1008.1
20260506082813 45 0.0 0.0 0.00 0.00 0.00 10 1008.1
20260506071913 45 0.0 0.0 0.00 0.00 0.00 10 1007.9
20260506070914 45 0.0 0.0 0.00 0.00 0.00 10 1007.8
20260506061912 46 0.0 0.0 0.00 0.00 0.00 10 1007.7
20260506060912 46 0.0 0.0 0.00 0.00 0.00 10 1007.8
20260506051015 47 0.0 0.0 0.00 0.00 0.00 10 1008.4
20260506044914 47 0.0 0.0 0.00 0.00 0.00 10 1008.7